STARLINK-1870 (47156 NORAD) Tracking and Keplerian Element Data

This shows tracking and keplerian element data for the satellite.

Feedback or suggestion? Click here.




ElementValue
Catalog47156
NameSTARLINK-1870
Epoch Orbit969
Epoch Day21.16668981
Epoch Year2021
RAAN72.8942
Inclination53.0548
Eccentricity0.0002401
Argument of Perigee23.4579
Mean Anonmoly46.0654
Mean Motion15.62404728
Decay Rate0.00565177
L11 47156U 20088AL 21021.16668981 .00565177 00000-0 58378-2 0 9996
L22 47156 53.0548 72.8942 0002401 23.4579 46.0654 15.62404728 9697

Live tracking and technical data element details for STARLINK-1870 (NORAD 47156). STARLINK-1870 can be tracked NOW for your location showing map with azimuth and elevation plus other details from your city location.

Track the satellite on the map from your city or location and see movement details for azimuth, elevation, latitude, longitude, range, height, and movement on the map or in text.







IsCatalogInMostPopularTable: catalog: 47156, numindb: 22
Update: records affected: 1



GetName: 47156 STARLINK-1870

Hit Count: updated at: Sat, 23 Jan 2021 16:26:14 GMT